Regional Weather Roundup
Issued by NWS Newport/Morehead, NC

Current Version | Previous Version | Text Only | Print | Product List | Glossary On
Versions: 1 2 3 4 5 6 7 8 9 10 11 12 13 14 15 16 17 18 19 20 21 22 23 24 25 26 27 28 29 30 31 32 33 34 35 36 37 38 39 40 41 42 43 44 45 46 47 48 49 50
615 ASUS42 KMHX 280525 RWRMHX WEATHER ROUNDUP FOR EASTERN NORTH CAROLINA NATIONAL WEATHER SERVICE NEWPORT/MOREHEAD CITY NC 100 AM EDT FRI APR 28 2017 NOTE: "FAIR" INDICATES FEW OR NO CLOUDS BELOW 12,000 FEET WITH NO SIGNIFICANT WEATHER AND/OR OBSTRUCTIONS TO VISIBILITY NCZ015>017-031-032-045>047-102-103-280600- NORTH COAST CITY SKY/WX TMP DP RH WIND PRES REMARKS EDENTON CLOUDY 73 66 80 S8 29.97R ELIZABETH CITY CLOUDY 72 67 84 SW13 29.96R KITTY HAWK CLOUDY 72 66 81 SW8 29.96S MANTEO CLOUDY 71 66 84 SW13 29.98S $$ NCZ045>047-081-094-103-104-280600- CENTRAL COAST CITY SKY/WX TMP DP RH WIND PRES REMARKS FRISCO CLOUDY 73 69 87 SW10 30.00S FOG $$ NCZ095-097-098-100-101-280600- SOUTHERN COAST CITY SKY/WX TMP DP RH WIND PRES REMARKS BEAUFORT CLOUDY 73 72 96 S12 29.99S CEDAR ISLAND NOT AVBL JACKSONVILLE MOCLDY 74 73 97 S14G21 29.96S PINEY ISLAND CLOUDY N/A N/A N/A S10 29.99S WILMINGTON CLOUDY 75 72 90 S13 29.95F $$ NCZ011>013-027>030-043-044-078>080-089-090>093-098-280600- COASTAL PLAIN CITY SKY/WX TMP DP RH WIND PRES REMARKS AHOSKIE N/A 71 65 80 S5 29.94S CLINTON CLOUDY 72 71 97 S3 29.95S ELIZABETHTOWN MOCLDY 73 71 92 S5 29.95S GOLDSBORO CLOUDY 73 73 100 S6 29.93S GREENVILLE CLOUDY 72 68 88 SW8 29.98R HAVELOCK NOT AVBL KENANSVILLE CLOUDY 72 70 94 CALM 29.96R KINSTON CLOUDY 72 67 85 CALM 29.96S NEW BERN CLOUDY 73 71 93 S8 29.97F RICHLANDS MOCLDY 73 71 93 S10 29.96F ROCKY MOUNT MOCLDY 72 67 84 S7 29.94R WASHINGTON CLOUDY 71 66 84 S6 29.97R WHITEVILLE CLOUDY 74 71 91 S8 29.95R $$ AMZ130-135-150-152-154-156-158-170-250-252-270-ANZ085-086-088-633-658-670-280600- MARINE OBSERVATIONS STATION/POSITION TIME TEMP WIND PRES WAVE SWELL AIR SEA DIR/SP/G HT/PER HT/PER (UTC) (F) (DEG/KT/KT) (MB) (FT/S) (FT/S) CHESAPEAKE LIGHT NOT AVBL 64 E VA BEACH 0450 61 57 210/ 14/ 16 1015.3 5/ 8 3/ 8 DUCK 0500 72 57 200/ 14/ 18 1014.0 2 E DUCK 0500 60 N/A 3/11 2/11 OREGON INLET 0500 72 72 200/ 13/ 15 1015.3 13E OREGON INLT 0448 64 N/A 4/ 9 3/ 9 HATTERAS CG 0500 73 72 200/ 8/ 11 1015.7 DIAMOND BUOY 0450 77 77 220/ 17/ 21 1016.1 6/ 6 3/ 8 CAPE LOOKOUT 0500 73 190/ 10/ 13 1015.7 BEAUFORT LAB 0500 72 69 190/ 11/ 14 1014.8 30 SE NEW RVR IN 0508 73 190/ 10/ 14 1015.9 30 SE NEW RVR IN 0513 72 N/A 5/ 8 2/11 27 SE WRIGHTSVLE 0508 73 72 170/ 12/ 17 1014.6 5 SE WRIGHTSVLE 0508 72 71 170/ 14/ 19 1014.4 225 S CAPE HAT 0450 74 75 160/ 16/ 17 1018.1 4/ 6 2/ 8 41 SE CHARLESTON 0510 75 74 180/ 14/ 17 1014.5 $$

USA.gov is the U.S. government's official web portal to all federal, state and local government web resources and services.